Date,TemperatureHighF,TemperatureAvgF,TemperatureLowF,DewpointHighF,DewpointAvgF,DewpointLowF,HumidityHigh,HumidityAvg,HumidityLow,PressureMaxIn,PressureMinIn,WindSpeedMaxMPH,WindSpeedAvgMPH,GustSpeedMaxMPH,PrecipitationSumIn
2014-1-1,70.9,48.5,33.3,48.3,35.6,24.6,84,63,42,30.26,29.89,16,4,16,0.00
2014-1-2,54.1,31.8,24.4,24.6,19.9,16.9,80,63,38,30.53,30.26,12,3,12,0.00
2014-1-3,53.6,39.0,25.2,26.3,23.4,20.2,84,56,32,30.49,30.05,14,4,14,0.00
2014-1-4,71.1,54.4,41.2,52.3,43.5,25.3,86,68,48,30.05,29.75,17,5,17,0.00
2014-1-5,54.1,33.1,20.7,36.8,20.6,8.5,76,60,44,30.59,29.80,17,5,17,0.00
2014-1-6,35.8,23.3,14.9,11.0,6.4,-5.3,63,49,30,30.80,30.59,10,2,10,0.00
2014-1-7,48.7,34.2,21.6,17.6,12.9,10.0,63,43,26,30.61,30.30,14,4,14,0.00
2014-1-8,46.8,42.6,38.5,46.5,37.9,17.6,99,86,39,30.30,30.13,12,4,12,0.10
2014-1-9,47.5,44.2,40.5,46.5,43.6,40.2,99,98,93,30.24,30.02,7,2,7,0.08
2014-1-10,70.5,57.1,43.5,62.6,52.9,39.1,99,87,57,30.02,29.69,10,2,10,0.14
2014-1-11,70.0,50.8,35.8,40.7,33.7,27.7,91,58,21,30.14,29.86,12,2,12,0.00
2014-1-12,75.0,58.9,44.4,54.8,39.3,27.6,80,50,25,30.07,29.81,23,6,23,0.00
2014-1-13,65.1,55.6,40.1,56.7,33.8,20.1,87,47,21,30.11,29.81,17,4,17,0.00
2014-1-14,68.7,48.9,32.0,38.1,27.6,19.3,76,45,25,30.38,30.03,11,2,11,0.00
2014-1-15,60.3,47.2,32.0,28.1,25.3,20.4,69,43,28,30.44,30.12,9,2,9,0.00
2014-1-16,66.2,51.3,34.9,37.4,28.2,12.7,79,43,20,30.22,30.03,8,2,8,0.00
2014-1-17,57.7,47.8,36.3,22.7,17.2,10.7,56,31,19,30.41,30.22,11,2,11,0.00
2014-1-18,70.9,52.1,35.8,32.2,26.6,18.4,58,39,23,30.22,30.06,13,3,13,0.00
2014-1-19,68.9,51.1,34.7,32.7,28.2,25.2,70,44,22,30.34,30.08,8,2,8,0.00
2014-1-20,75.4,58.4,46.6,41.1,33.5,27.5,56,40,26,30.25,29.86,11,3,11,0.00
2014-1-21,52.7,44.0,36.9,28.4,19.0,11.3,50,37,21,30.49,30.20,10,2,10,0.00
2014-1-22,62.8,45.9,33.3,30.3,24.6,17.2,64,44,28,30.21,30.06,6,2,6,0.00
2014-1-23,44.2,33.2,24.1,24.2,12.2,0.9,55,42,31,30.80,30.21,10,4,10,0.00
2014-1-24,45.0,30.2,18.3,14.3,6.0,1.1,53,37,19,30.80,30.27,11,3,11,0.00
2014-1-25,71.1,45.9,28.0,35.5,25.7,13.9,70,47,27,30.27,30.01,6,1,6,0.00
2014-1-26,77.4,58.4,47.7,39.9,36.5,32.2,63,46,25,30.01,29.66,11,2,11,0.00
2014-1-27,50.2,36.9,24.6,37.9,11.2,-2.1,65,36,20,30.39,29.80,11,4,11,0.00
2014-1-28,37.9,27.5,21.7,16.5,7.7,-0.8,66,43,31,30.54,30.38,8,2,8,0.00
2014-1-29,49.1,32.8,16.2,17.7,13.7,10.0,85,50,23,30.49,30.20,14,3,14,0.00
2014-1-30,59.4,45.2,31.3,47.0,31.0,13.9,83,58,43,30.20,29.83,20,6,20,0.00
2014-1-31,74.7,63.2,51.6,59.0,53.2,46.8,87,72,48,29.90,29.77,14,5,14,0.00
2014-2-1,65.3,50.7,39.4,59.2,41.8,30.0,83,72,65,30.06,29.77,17,4,17,0.00
2014-2-2,39.4,33.0,29.3,31.9,28.9,25.7,94,85,69,30.55,30.05,12,3,12,0.17
2014-2-3,43.5,35.0,29.8,35.9,30.2,25.6,87,82,72,30.32,30.06,7,2,7,0.00
2014-2-4,47.5,41.3,37.4,41.6,38.0,33.1,96,88,77,30.16,29.91,11,3,11,0.19
2014-2-5,37.2,29.0,21.4,32.9,21.1,14.1,85,72,60,30.59,30.16,10,4,10,0.00
2014-2-6,25.3,21.2,16.2,19.4,15.5,9.5,87,78,70,30.63,30.44,9,2,9,0.00
2014-2-7,32.4,28.1,22.8,28.1,22.4,17.0,87,79,72,30.44,30.25,8,2,8,0.02
2014-2-8,57.0,40.7,31.5,41.3,35.2,28.1,92,82,55,30.25,30.02,11,3,11,0.00
2014-2-9,47.7,41.5,36.1,43.1,39.4,34.3,97,92,83,30.18,30.04,7,2,7,0.00
2014-2-10,36.0,31.9,29.3,34.7,30.9,28.3,97,96,94,30.32,30.16,8,2,8,0.01
2014-2-11,35.6,31.3,27.3,29.4,26.9,23.7,96,84,71,30.38,30.26,9,2,9,0.01
2014-2-12,52.9,39.2,29.3,33.2,28.8,25.2,87,68,44,30.28,30.08,10,2,10,0.00
2014-2-13,68.9,48.5,30.0,40.8,35.4,27.6,92,65,34,30.08,29.88,10,2,10,0.00
2014-2-14,64.0,49.2,44.8,41.4,39.2,38.0,77,69,42,29.89,29.75,10,3,10,0.00
2014-2-15,56.5,56.0,55.0,32.9,32.2,31.8,43,40,39,30.17,30.16,10,7,10,0.00
2014-2-16,77.0,69.1,62.2,59.3,58.0,56.3,84,68,54,30.07,29.89,18,5,18,0.00
2014-2-17,76.8,64.0,50.0,58.9,41.1,28.3,93,50,19,30.18,29.88,10,2,10,0.00
2014-2-18,83.5,63.2,42.4,60.5,46.7,30.6,76,57,30,30.15,29.85,14,3,14,0.00
2014-2-19,69.4,65.6,60.6,62.2,60.7,57.8,95,84,77,29.94,29.66,17,4,17,0.00
2014-2-20,73.8,63.6,45.1,63.0,45.5,25.1,82,56,27,30.14,29.63,19,5,19,0.00
2014-2-21,69.1,53.1,34.3,36.1,27.6,17.6,82,43,19,30.21,30.02,11,3,11,0.00
2014-2-22,76.1,61.4,50.2,53.4,41.2,29.3,73,48,40,30.04,29.83,15,4,15,0.00
2014-2-23,72.9,60.0,47.7,58.5,50.1,38.6,93,71,46,30.14,29.85,10,3,10,0.00
2014-2-24,57.2,50.3,42.1,47.1,41.6,37.0,83,72,62,30.19,30.04,5,1,5,0.00
2014-2-25,54.9,49.2,41.9,46.9,42.0,29.1,94,77,51,30.17,30.04,8,2,8,0.07
2014-2-26,46.2,38.0,31.3,34.0,21.6,17.2,73,52,37,30.35,30.16,9,3,9,0.00
2014-2-27,58.6,43.2,25.0,31.6,24.5,17.6,84,51,28,30.18,29.86,11,2,11,0.00
2014-2-28,86.0,60.5,43.9,52.3,40.8,31.4,78,54,17,29.86,29.65,14,5,14,0.00
2014-3-1,83.7,65.7,49.6,64.7,56.9,48.1,98,76,39,29.98,29.82,14,3,14,0.00
2014-3-2,70.2,30.3,18.9,63.2,26.4,13.5,92,85,76,30.36,29.93,14,4,14,0.00
2014-3-3,39.0,25.0,16.0,22.1,15.7,10.4,79,68,49,30.50,30.31,11,3,11,0.03
2014-3-4,55.6,41.4,26.8,33.3,27.2,18.0,77,58,38,30.34,30.02,8,3,8,0.00
2014-3-5,57.6,45.0,33.1,38.2,33.2,29.9,89,65,44,30.19,29.95,11,2,11,0.00
2014-3-6,62.1,46.3,38.8,40.1,37.6,34.4,87,73,44,30.27,30.06,6,2,8,0.00
2014-3-7,68.9,52.1,35.8,46.5,39.8,33.0,92,66,37,30.06,29.82,17,3,17,0.00
2014-3-8,55.9,48.4,38.5,51.4,42.2,33.2,85,79,71,30.33,29.86,16,4,16,0.00
2014-3-9,69.6,49.2,37.2,44.8,38.4,32.6,84,68,44,30.36,30.18,7,2,7,0.00
2014-3-10,79.2,56.4,43.2,56.2,46.3,40.5,91,72,34,30.19,29.86,8,2,11,0.00
2014-3-11,84.2,67.9,56.7,59.3,54.9,39.3,90,66,40,29.86,29.50,11,5,14,0.00
2014-3-12,65.5,53.5,45.1,39.4,30.6,23.6,68,44,22,30.30,29.83,9,3,12,0.00
2014-3-13,70.9,54.8,33.6,34.9,28.6,25.6,78,41,20,30.33,30.06,12,3,12,0.00
2014-3-14,74.8,61.1,49.1,54.5,46.7,32.3,79,60,40,30.07,29.94,16,4,16,0.00
2014-3-15,67.8,60.3,53.2,61.5,56.7,47.4,99,88,72,29.98,29.67,14,2,14,1.52
2014-3-16,54.9,46.9,41.5,53.7,41.8,33.8,99,83,69,30.09,29.76,14,4,14,0.01
2014-3-17,65.7,48.0,36.0,34.8,31.3,25.1,79,56,23,30.08,29.71,9,3,9,0.00
2014-3-18,83.8,63.9,50.2,50.5,39.0,27.7,61,42,17,29.88,29.56,19,6,19,0.00
2014-3-19,70.0,56.1,44.8,40.6,35.1,31.1,63,46,29,30.22,29.88,10,2,10,0.00
2014-3-20,75.9,58.0,38.1,40.7,34.0,30.6,83,45,20,30.24,30.00,9,2,9,0.00
2014-3-21,83.3,67.1,51.1,60.1,50.1,33.3,74,55,39,30.01,29.79,16,4,16,0.00
2014-3-22,68.2,59.9,51.1,59.6,49.2,42.5,83,69,49,30.12,29.90,8,2,8,0.00
2014-3-23,61.7,52.3,45.9,45.1,34.3,27.7,74,51,39,30.38,30.12,11,2,11,0.00
2014-3-24,73.0,53.6,38.1,43.7,36.7,28.8,77,55,35,30.27,30.03,11,1,11,0.00
2014-3-25,69.8,54.5,40.5,43.3,31.1,24.9,74,44,24,30.41,30.16,9,2,9,0.00
2014-3-26,61.7,53.1,45.1,51.4,39.8,29.6,76,61,44,30.22,29.91,17,4,17,0.03
2014-3-27,83.3,68.0,57.9,66.5,60.6,51.3,95,78,57,29.91,29.64,18,6,18,0.02
2014-3-28,82.4,68.5,53.8,67.9,59.5,42.6,91,74,44,30.08,29.73,10,3,10,0.00
2014-3-29,81.1,60.5,45.5,46.3,40.1,32.4,80,52,20,30.31,30.08,7,2,7,0.00
2014-3-30,80.4,64.4,45.3,49.1,41.5,35.7,76,46,27,30.22,29.96,16,4,16,0.00
2014-3-31,83.3,69.4,57.9,60.6,55.8,47.1,81,63,46,29.97,29.81,16,6,16,0.00
2014-4-1,87.1,73.6,65.3,65.8,62.5,58.8,84,70,49,29.98,29.83,16,5,16,0.00
2014-4-2,83.8,76.0,70.7,69.8,67.1,65.3,84,74,58,29.85,29.68,14,5,14,0.00
2014-4-3,87.3,76.0,61.5,70.8,67.2,46.6,87,75,57,29.87,29.59,16,6,16,0.11
2014-4-4,73.0,56.7,45.3,46.9,37.6,33.5,70,51,28,30.21,29.87,11,3,11,0.00
2014-4-5,59.2,53.7,48.7,44.9,38.0,31.3,71,56,45,30.16,29.96,11,2,11,0.00
2014-4-6,53.1,50.3,47.3,51.1,48.4,44.3,96,93,87,29.92,29.76,7,2,7,0.70
2014-4-7,75.0,56.9,47.5,53.2,49.2,43.5,96,78,44,30.00,29.80,12,2,12,0.15
2014-4-8,73.9,60.0,49.8,48.3,41.6,35.1,87,56,26,30.17,30.00,15,4,15,0.00
2014-4-9,77.4,58.1,43.3,48.5,42.7,36.6,89,61,28,30.23,30.00,13,2,13,0.00
2014-4-10,86.5,72.5,59.9,57.4,54.0,47.9,77,54,37,30.00,29.83,19,7,19,0.00
2014-4-11,74.3,65.6,62.4,62.2,56.3,54.7,83,72,59,29.95,29.91,14,5,14,0.00
2014-4-12,85.6,77.9,68.9,64.1,62.6,60.7,76,60,48,29.93,29.74,19,7,19,0.00
2014-4-13,80.1,70.9,66.2,68.8,64.3,60.9,92,80,65,29.83,29.58,16,6,16,0.48
2014-4-14,68.2,50.7,43.9,61.4,39.1,30.5,83,65,45,30.31,29.74,8,4,12,0.00
2014-4-15,72.0,53.2,33.8,32.3,27.4,21.3,80,42,18,30.37,30.15,9,2,9,0.00
2014-4-16,70.9,57.7,46.2,45.1,37.5,31.0,60,48,33,30.17,29.97,19,5,19,0.00
2014-4-17,64.2,58.1,51.3,55.7,50.3,41.8,85,75,58,30.25,30.05,10,3,11,0.03
2014-4-18,83.5,66.1,55.9,55.1,52.0,47.4,92,66,33,30.27,30.14,7,1,7,0.04
2014-4-19,80.4,67.9,56.3,57.6,52.8,47.7,76,60,43,30.23,30.11,11,2,11,0.00
2014-4-20,82.2,68.7,60.8,61.4,57.1,52.3,93,69,41,30.15,30.04,13,3,13,0.40
2014-4-21,80.2,62.8,62.1,66.3,60.6,59.8,95,93,62,30.09,29.93,8,2,8,0.23
2014-4-22,70.7,70.7,70.7,56.1,56.1,56.1,60,60,60,29.96,29.96,0,0,0,0.00
2014-4-23,80.6,77.5,75.2,61.3,59.7,58.6,62,55,49,29.78,29.72,14,5,14,0.00
2014-4-24,81.7,70.2,66.9,63.1,61.8,47.2,81,75,30,29.85,29.75,14,5,14,0.00
2014-4-26,84.7,78.8,72.1,68.8,67.0,63.0,80,67,58,29.78,29.65,16,6,16,0.00
2014-4-27,93.4,81.0,72.9,72.1,57.0,31.9,84,52,16,29.65,29.40,15,5,15,0.03
2014-4-28,86.5,74.6,64.2,48.0,41.6,31.6,45,31,17,29.73,29.52,11,3,11,0.00
2014-4-29,77.9,68.9,61.5,47.7,40.7,34.5,56,37,24,29.95,29.65,18,4,18,0.00
2014-4-30,72.0,62.7,50.4,41.6,36.8,29.7,61,40,24,30.18,30.08,15,3,15,0.00
2014-5-1,78.4,61.5,42.1,41.9,37.9,32.1,81,47,21,30.19,30.02,14,1,14,0.00
2014-5-2,85.1,67.6,50.7,46.1,39.1,30.1,70,40,16,30.05,29.91,12,2,12,0.00
2014-5-3,93.2,72.1,49.6,54.0,43.4,35.2,84,43,16,30.05,29.96,8,2,8,0.00
2014-5-4,95.7,79.8,64.6,50.1,45.3,40.9,47,31,16,30.03,29.89,14,4,14,0.00
2014-5-5,91.8,77.6,64.0,61.7,53.9,41.5,63,45,34,29.94,29.75,17,6,17,0.00
2014-5-6,89.2,76.4,65.3,66.3,61.6,57.6,79,61,46,29.80,29.68,16,6,16,0.00
2014-5-7,85.6,76.3,70.0,68.6,64.8,62.0,77,68,56,29.83,29.73,16,6,16,0.00
2014-5-8,76.5,70.1,64.2,71.4,65.4,60.9,93,85,70,29.91,29.73,13,3,13,0.72
2014-5-9,91.2,78.5,64.6,70.5,63.2,50.4,95,65,27,29.91,29.78,9,3,9,0.01
2014-5-10,89.4,77.4,65.7,70.3,64.8,59.4,83,66,49,29.92,29.76,14,5,14,0.00
2014-5-11,89.1,80.9,73.8,70.8,69.0,67.5,82,68,53,29.83,29.69,21,7,21,0.00
2014-5-12,83.7,72.3,59.2,73.7,66.4,55.5,93,82,71,30.08,29.72,20,5,20,0.65
2014-5-13,73.2,62.1,55.0,55.6,50.4,47.6,90,67,46,30.27,30.06,9,3,9,0.10
2014-5-14,76.6,62.3,52.0,52.4,47.1,39.1,90,62,29,30.29,30.17,14,2,14,0.22
2014-5-15,87.3,68.9,52.3,49.8,43.5,34.6,79,47,18,30.25,30.06,13,2,13,0.00
2014-5-16,88.7,76.9,57.9,55.9,51.3,45.4,77,43,24,30.12,29.87,13,4,13,0.00
2014-5-17,85.8,74.6,58.8,61.1,53.8,44.5,66,49,37,30.02,29.86,12,3,12,0.00
2014-5-18,86.9,74.9,64.2,62.4,60.1,55.3,84,61,45,30.09,29.96,14,5,14,0.00
2014-5-19,87.1,76.2,65.5,64.2,61.6,58.7,81,62,45,30.04,29.90,17,6,17,0.00
2014-5-20,89.2,78.6,69.6,65.6,63.2,59.1,78,61,39,30.05,29.94,17,7,17,0.00
2014-5-21,89.1,79.2,70.0,66.6,64.0,62.2,78,61,45,30.08,29.97,15,5,15,0.00
2014-5-22,89.6,79.0,69.3,68.5,65.6,62.8,81,65,48,30.13,29.97,14,4,14,0.00
2014-5-23,84.4,77.4,72.1,67.9,66.1,63.7,76,68,55,30.10,30.00,10,4,10,0.00
2014-5-24,88.9,78.8,72.0,69.4,66.5,63.8,77,67,48,30.07,29.95,13,4,13,0.00
2014-5-25,87.8,75.2,69.1,69.9,67.7,64.2,93,78,53,30.02,29.89,22,4,22,0.83
2014-5-26,83.3,74.3,69.8,70.0,66.1,61.5,89,76,58,30.06,29.93,14,3,14,0.01
2014-5-27,81.1,70.7,65.5,68.5,64.2,62.7,92,81,61,30.01,29.85,9,2,9,0.24
2014-5-28,88.3,75.2,64.2,68.3,65.0,62.1,94,73,48,29.95,29.85,7,1,7,0.00
2014-5-29,93.4,79.9,67.5,69.6,66.1,63.7,90,65,42,29.92,29.80,7,1,7,0.00
2014-5-30,92.5,78.6,69.3,70.8,67.2,64.7,86,69,45,29.91,29.82,6,1,6,0.00
2014-5-31,90.5,77.6,72.1,72.2,69.3,67.6,86,77,54,29.97,29.90,7,1,7,0.00
2014-6-1,92.1,81.3,71.8,72.9,69.8,59.9,88,69,51,29.98,29.83,11,3,11,0.00
2014-6-2,93.7,82.3,74.7,71.9,70.0,68.6,82,68,47,30.02,29.84,10,4,12,0.00
2014-6-3,93.6,83.4,75.4,73.7,71.0,69.6,84,67,51,30.03,29.88,11,4,11,0.00
2014-6-4,93.9,84.2,75.9,74.4,71.4,69.7,83,66,51,29.89,29.77,15,5,15,0.00
2014-6-5,91.8,82.9,75.6,74.6,71.6,69.1,81,69,55,29.86,29.77,14,4,14,0.00
2014-6-6,94.3,83.9,75.9,73.5,71.1,68.5,82,67,48,29.97,29.79,13,4,13,0.00
2014-6-7,96.4,86.1,75.9,71.8,70.3,68.7,79,61,44,29.96,29.83,14,4,14,0.00
2014-6-8,91.4,81.0,70.2,73.2,70.2,64.9,90,71,52,30.02,29.78,12,3,12,0.12
2014-6-9,82.8,74.1,63.9,72.4,65.2,58.8,92,75,53,29.85,29.74,18,3,18,0.80
2014-6-10,88.2,76.2,65.5,65.3,61.2,57.4,75,61,45,29.88,29.76,14,4,14,0.00
2014-6-11,97.2,81.0,63.5,69.8,64.4,59.1,89,60,34,29.92,29.75,10,3,10,0.00
2014-6-12,87.3,79.1,71.1,72.5,69.6,65.7,89,73,60,29.99,29.73,13,3,13,0.10
2014-6-13,92.8,81.9,72.5,72.2,69.5,67.0,84,67,50,30.02,29.88,9,2,9,0.00
2014-6-14,92.7,82.6,75.0,74.6,71.3,69.1,82,69,53,29.93,29.79,15,4,15,0.00
2014-6-15,94.3,84.5,76.1,73.2,71.3,69.3,80,66,51,29.94,29.79,15,5,15,0.00
2014-6-16,95.4,85.0,76.1,74.1,71.7,68.3,84,66,47,30.02,29.90,15,5,15,0.00
2014-6-17,95.4,85.7,77.5,73.8,71.7,68.7,81,64,45,30.01,29.88,18,6,18,0.00
2014-6-18,96.3,83.9,77.0,74.5,71.6,69.5,80,68,46,29.99,29.89,19,5,19,0.03
2014-6-19,96.3,86.0,76.1,74.4,71.7,69.1,82,64,44,30.06,29.95,12,4,12,0.00
2014-6-20,97.5,85.6,77.4,72.5,69.6,64.0,79,61,37,30.11,29.99,11,3,11,0.00
2014-6-21,89.2,83.5,78.1,72.9,70.9,69.4,77,66,54,30.05,29.91,10,3,10,0.00
2014-6-22,83.5,75.6,68.9,73.3,69.8,65.7,91,82,71,30.01,29.83,11,3,11,0.61
2014-6-23,90.7,78.2,67.3,73.0,69.4,64.9,94,76,51,29.98,29.81,14,2,14,0.96
2014-6-24,98.1,78.0,70.7,76.1,69.5,66.4,88,76,50,30.05,29.96,5,1,5,0.05
2014-6-25,88.5,75.2,70.0,76.3,70.1,66.3,93,85,67,30.06,29.99,14,2,14,1.26
2014-6-26,77.2,72.4,71.1,71.1,69.7,69.0,93,91,82,30.03,29.95,10,2,10,0.02
2014-6-27,92.5,86.7,79.9,75.3,73.5,71.2,80,65,57,29.89,29.82,23,9,23,0.00
2014-6-28,90.9,83.1,77.0,76.4,73.5,71.8,85,74,58,29.96,29.87,20,8,20,0.00
2014-6-29,94.5,85.9,78.8,76.2,74.1,72.8,83,69,55,30.05,29.94,20,8,20,0.00
2014-6-30,95.9,85.8,76.8,75.1,71.8,67.3,82,65,42,30.02,29.87,21,8,21,0.00
2014-7-1,95.2,84.5,75.7,73.9,71.9,69.1,83,67,47,30.04,29.87,18,6,18,0.00
2014-7-2,97.0,85.6,78.3,73.8,70.9,68.1,78,63,42,30.13,29.98,11,3,11,0.00
2014-7-3,90.0,79.9,70.0,71.9,68.4,65.6,87,69,51,30.25,30.12,15,2,15,0.20
2014-7-4,97.7,83.8,73.8,73.1,69.9,66.7,81,65,44,30.26,30.16,12,3,12,0.00
2014-7-5,94.8,84.2,74.8,74.8,71.3,68.5,84,67,47,30.24,30.08,14,5,14,0.00
2014-7-6,97.5,84.3,74.5,73.0,70.1,66.5,83,64,41,30.11,29.98,11,4,11,0.00
2014-7-7,98.6,86.6,77.4,74.6,70.4,66.5,79,60,42,30.04,29.93,13,4,13,0.00
2014-7-8,99.1,86.9,77.5,74.5,70.3,65.9,78,59,39,30.06,29.94,14,5,14,0.00
2014-7-9,100.4,87.8,77.0,75.1,69.1,64.8,74,55,38,30.10,29.95,11,4,11,0.00
2014-7-10,98.4,87.7,77.4,72.9,67.4,61.8,74,53,33,30.09,29.97,16,5,16,0.00
2014-7-11,96.8,86.8,75.9,70.1,66.7,61.8,74,53,37,30.17,30.06,17,6,17,0.00
2014-7-12,99.9,88.2,76.5,69.0,65.9,56.5,70,50,31,30.22,30.07,14,4,14,0.00
2014-7-13,102.7,89.7,78.1,75.2,69.5,65.8,74,54,34,30.15,29.99,10,3,10,0.00
2014-7-14,105.6,86.7,77.5,74.2,70.8,67.0,85,61,35,30.05,29.94,11,3,11,0.27
2014-7-15,96.6,83.6,74.9,72.7,61.8,52.3,86,53,26,30.11,30.00,12,3,12,0.00
2014-7-16,93.4,79.5,68.7,72.1,63.9,52.9,87,60,44,30.09,29.90,13,3,13,0.12
2014-7-17,78.8,73.2,67.8,72.5,68.6,65.3,92,86,77,30.01,29.91,11,3,11,0.88
2014-7-18,79.5,71.3,65.3,67.0,64.2,61.6,90,79,65,30.07,29.99,10,3,10,0.00
2014-7-19,80.6,73.2,68.7,67.3,64.9,63.3,84,76,63,30.10,30.02,7,1,7,0.00
2014-7-20,94.1,79.3,66.9,76.7,69.8,63.2,91,74,56,30.10,29.96,11,4,11,0.00
2014-7-21,99.9,85.8,74.7,81.7,73.6,70.2,86,69,48,30.10,29.99,11,4,11,0.00
2014-7-22,102.0,87.8,77.7,79.5,73.7,70.3,83,65,41,30.12,30.04,10,3,10,0.00
2014-7-23,102.4,86.3,74.7,75.5,71.7,67.7,85,64,41,30.16,30.03,13,2,13,0.00
2014-7-24,101.8,85.9,74.3,74.1,69.6,67.4,82,61,35,30.11,29.98,8,2,8,0.00
2014-7-25,101.8,88.1,75.2,76.5,71.2,65.7,85,60,34,30.06,29.93,12,4,12,0.00
2014-7-26,102.6,90.2,79.0,75.3,71.0,67.3,77,56,34,30.05,29.92,14,5,14,0.00
2014-7-27,104.9,91.1,79.5,73.9,71.0,67.0,77,54,34,30.08,29.98,15,4,15,0.00
2014-7-28,99.0,88.5,80.6,75.0,69.9,63.4,78,55,38,30.18,30.05,19,4,19,0.00
2014-7-29,85.8,78.9,72.5,67.3,64.5,59.5,73,62,48,30.20,30.08,9,1,9,0.00
2014-7-30,89.1,80.2,72.7,74.6,70.7,63.4,90,73,59,30.12,29.92,15,4,15,0.16
2014-7-31,81.9,76.2,71.4,72.4,68.9,65.3,85,78,67,30.08,29.94,14,4,15,0.00
2014-8-1,84.7,74.7,69.8,69.9,67.0,65.3,87,77,61,30.11,30.04,10,3,10,0.00
2014-8-2,93.6,78.9,66.7,71.8,67.1,63.7,91,69,44,30.16,30.05,11,2,11,0.00
2014-8-3,96.4,82.7,72.0,72.4,68.6,66.6,87,65,42,30.15,30.03,11,2,11,0.00
2014-8-4,98.2,84.3,72.5,74.4,68.8,64.4,86,62,36,30.13,30.02,10,2,10,0.00
2014-8-5,100.9,84.1,74.1,76.4,71.2,67.1,86,68,37,30.13,30.01,13,2,13,0.27
2014-8-6,100.9,88.0,78.4,74.5,71.7,68.0,85,61,37,30.08,29.91,12,5,12,0.00
2014-8-7,102.2,89.5,79.3,76.9,72.2,68.8,76,58,40,29.98,29.82,14,5,14,0.00
2014-8-8,104.9,90.4,80.1,77.2,72.6,68.5,80,58,36,29.98,29.87,16,4,16,0.00
2014-8-9,104.2,90.8,80.1,75.3,71.4,66.0,74,55,35,30.02,29.91,14,4,14,0.00
2014-8-10,105.8,88.5,80.4,76.3,72.2,68.3,76,60,34,30.07,29.94,12,3,12,0.13
2014-8-11,99.3,87.4,79.0,74.4,69.3,65.8,70,56,35,30.11,30.01,14,3,14,0.00
2014-8-12,96.3,85.3,77.7,71.8,65.2,58.8,79,54,33,30.14,30.04,16,3,16,0.00
2014-8-13,98.4,83.7,70.7,66.6,61.7,59.7,75,50,29,30.16,30.02,9,2,9,0.00
2014-8-14,99.7,84.7,73.0,67.7,64.5,61.6,72,52,34,30.13,29.98,10,3,10,0.00
2014-8-15,101.7,87.1,74.1,74.3,67.7,64.0,77,55,35,30.05,29.88,14,5,14,0.00
2014-8-16,103.5,85.9,80.2,74.8,72.2,69.1,80,65,35,29.98,29.89,19,4,19,0.03
2014-8-17,87.3,78.5,69.4,75.1,71.7,67.3,94,80,64,30.11,29.92,14,4,14,3.53
2014-8-18,92.8,82.2,72.3,78.2,73.7,68.2,90,76,61,30.01,29.88,10,2,10,0.00
2014-8-19,96.3,85.5,76.1,76.0,71.6,67.8,80,64,48,29.99,29.87,18,4,18,0.00
2014-8-20,98.1,87.0,79.0,76.0,71.9,63.4,78,63,41,30.02,29.91,17,6,17,0.00
2014-8-21,99.0,88.2,78.8,77.4,72.0,60.3,82,61,39,30.07,29.96,16,7,16,0.00
2014-8-22,100.6,89.5,79.9,75.4,70.6,62.9,81,56,33,30.09,29.96,16,6,16,0.00
2014-8-23,100.4,89.0,78.6,71.1,68.6,63.1,74,53,34,30.05,29.90,14,5,14,0.00
2014-8-24,103.1,89.5,78.6,75.0,69.9,65.7,73,54,37,30.00,29.88,11,4,11,0.00
2014-8-25,104.2,90.2,79.2,76.3,70.8,66.8,75,55,35,30.03,29.90,16,3,16,0.00
2014-8-26,101.8,89.2,80.2,77.7,72.0,69.1,76,58,42,30.09,29.97,9,2,9,0.00
2014-8-27,99.9,87.9,77.9,76.6,70.3,62.3,81,58,41,30.11,29.98,10,2,10,0.00
2014-8-28,98.6,86.1,75.2,73.8,68.0,62.3,75,56,40,30.03,29.86,12,3,12,0.00
2014-8-29,98.2,82.8,71.4,74.5,70.3,66.1,86,68,43,30.00,29.87,11,3,11,0.01
2014-8-30,99.3,85.6,76.5,77.7,72.3,68.9,82,66,45,30.01,29.89,11,4,11,0.00
2014-8-31,97.5,86.1,76.5,77.3,72.8,70.2,84,66,48,30.02,29.88,17,6,17,0.00
2014-9-1,97.5,86.4,77.4,76.4,72.5,69.9,82,65,47,29.96,29.86,17,8,17,0.00
2014-9-2,98.6,88.4,78.8,77.0,73.2,69.6,80,62,43,30.04,29.90,17,6,17,0.01
2014-9-3,97.5,86.9,77.9,76.3,72.4,68.9,83,64,43,30.05,29.93,16,6,16,0.00
2014-9-4,98.1,87.6,78.8,75.5,71.4,68.8,78,60,42,30.09,29.97,14,6,17,0.00
2014-9-5,99.1,87.1,77.7,75.7,70.6,66.4,79,60,41,30.14,29.99,10,4,11,0.00
2014-9-6,99.9,85.3,75.2,75.9,71.5,67.1,82,65,42,30.14,30.01,12,3,14,0.00
2014-9-7,91.8,80.0,72.0,72.8,69.4,66.3,83,71,54,30.15,30.02,9,2,11,0.00
2014-9-8,96.6,84.2,73.9,75.4,71.3,68.8,86,67,46,30.08,29.94,10,3,10,0.00
2014-9-9,99.1,88.0,77.4,75.1,70.8,67.9,79,59,40,30.01,29.82,16,6,16,0.00
2014-9-10,101.7,89.6,78.8,75.2,71.6,69.3,76,57,39,29.86,29.76,17,7,17,0.00
2014-9-11,88.9,82.3,73.4,74.4,71.3,66.8,83,70,54,30.06,29.86,12,4,14,0.01
2014-9-12,73.6,67.8,59.2,68.6,63.3,55.2,91,86,81,30.28,30.04,17,5,17,0.13
2014-9-13,72.9,63.4,55.8,59.1,55.7,52.3,89,77,61,30.34,30.23,14,4,14,0.01
2014-9-14,80.4,70.7,63.7,66.9,62.8,58.6,88,76,64,30.29,30.16,7,1,7,0.00
2014-9-15,87.3,77.3,70.0,72.3,68.3,64.5,87,75,60,30.20,30.11,6,1,7,0.00
2014-9-16,94.1,83.3,74.1,75.1,70.6,67.9,84,67,49,30.17,30.00,8,1,8,0.00
2014-9-17,98.6,83.3,74.7,75.0,71.7,68.6,86,70,41,30.04,29.88,15,2,15,0.00
2014-9-18,92.1,81.3,75.0,76.5,72.2,68.2,87,75,56,29.98,29.87,11,2,11,0.00
2014-9-19,91.6,78.9,68.5,74.2,69.0,64.3,89,73,55,30.02,29.92,11,2,11,0.00
2014-9-20,93.7,82.6,73.8,74.4,68.9,62.0,87,65,40,30.06,29.95,11,4,13,0.00
2014-9-21,97.2,82.8,68.7,73.5,66.9,62.5,87,61,38,30.15,30.02,8,1,9,0.00
2014-9-22,91.8,80.3,72.7,70.8,58.2,50.4,72,49,28,30.25,30.13,10,3,11,0.00
2014-9-23,87.6,73.7,63.3,58.5,54.7,49.0,75,54,31,30.25,30.10,9,2,9,0.16
2014-9-24,90.9,74.1,58.6,57.1,52.4,46.9,81,50,24,30.24,30.12,10,2,10,0.00
2014-9-25,90.5,75.3,60.4,63.1,57.6,53.9,86,57,35,30.24,30.12,8,1,9,0.00
2014-9-26,91.6,79.5,68.2,69.5,60.2,56.1,77,53,38,30.18,30.06,10,1,11,0.00
2014-9-27,91.2,77.3,65.7,67.6,62.2,58.7,83,62,41,30.14,30.01,8,2,9,0.00
2014-9-28,92.8,78.2,66.2,69.7,63.9,61.3,87,64,43,30.12,30.02,8,1,9,0.00
2014-9-29,92.1,78.4,64.8,68.3,64.0,60.0,87,63,43,30.08,29.93,8,1,9,0.16
2014-9-30,89.8,78.2,69.4,70.3,65.6,0.0,84,68,48,39.24,29.84,16,3,16,0.00
2014-10-1,93.0,83.0,73.8,74.2,70.4,68.6,87,67,50,39.31,39.25,15,6,15,0.00
2014-10-2,94.1,79.9,69.3,75.0,69.6,55.5,88,72,51,39.29,39.24,19,6,19,0.44
2014-10-3,85.3,70.0,58.8,56.6,53.3,46.4,85,58,35,39.65,39.45,11,3,12,0.00
2014-10-4,79.9,65.7,48.4,47.5,42.2,37.1,82,47,23,39.72,39.47,8,2,9,0.00
2014-10-5,85.6,73.0,59.7,66.3,57.8,41.8,80,60,41,39.44,39.38,14,5,14,0.00
2014-10-6,85.8,76.1,66.6,71.0,65.9,61.1,90,71,61,39.33,29.80,15,5,15,0.16
2014-10-7,97.2,80.5,69.3,73.9,67.6,64.2,87,67,38,29.92,29.82,14,5,14,0.60
2014-10-8,83.3,77.7,73.0,72.9,69.7,68.6,87,77,62,30.02,29.91,16,6,16,0.76
2014-10-9,93.2,82.1,75.6,73.9,70.4,66.7,85,70,45,29.99,29.83,18,6,18,0.00
2014-10-10,93.2,82.2,64.8,72.9,68.4,61.0,88,65,45,29.97,29.81,16,4,16,0.20
2014-10-11,65.5,60.3,57.6,63.1,55.6,52.0,92,85,77,30.12,29.91,12,3,12,0.28
2014-10-12,76.5,63.8,51.6,69.1,57.7,48.8,91,81,63,30.05,29.63,17,4,17,0.00
2014-10-13,75.6,63.6,58.8,71.1,56.5,48.5,96,79,62,29.97,29.54,31,6,31,1.52
2014-10-14,78.8,65.6,55.8,48.9,44.8,39.3,72,50,25,30.12,29.96,17,4,17,0.00
2014-10-15,85.6,65.2,48.9,55.2,49.0,45.8,91,61,27,30.11,29.97,7,1,7,0.00
2014-10-16,90.0,74.1,54.1,54.3,51.3,48.3,87,50,25,29.97,29.79,16,4,16,0.00
2014-10-17,88.7,74.1,62.4,60.4,55.6,50.7,73,54,34,29.98,29.81,9,3,9,0.00
2014-10-18,84.4,71.5,62.4,62.9,57.4,51.9,78,62,47,30.12,29.98,10,2,10,0.00
2014-10-19,79.0,69.0,60.3,60.7,56.7,53.9,81,66,51,30.18,30.04,11,2,11,2.77
2014-10-20,86.2,70.3,57.9,66.4,59.7,54.0,88,70,50,30.11,29.94,9,2,9,0.00
2014-10-21,84.6,70.5,57.7,64.3,59.4,54.5,91,70,44,30.08,29.97,11,2,11,0.00
2014-10-22,84.0,70.8,61.0,66.4,60.5,56.5,91,71,52,30.11,29.97,10,2,10,0.00
2014-10-23,80.8,70.9,63.9,61.7,57.9,54.9,80,64,51,30.08,29.96,11,3,11,0.00
2014-10-24,85.6,72.6,62.4,65.7,60.5,56.5,83,67,51,30.08,29.96,11,3,11,0.00
2014-10-25,90.9,76.3,63.7,67.9,62.7,58.4,83,64,46,30.05,29.94,10,3,10,0.00
2014-10-26,88.3,76.5,66.0,64.8,60.8,56.6,81,60,41,29.94,29.76,19,5,19,0.00
2014-10-27,84.6,75.2,66.2,65.1,61.5,56.9,83,64,46,29.78,29.67,21,8,21,0.00
2014-10-28,79.2,72.7,66.7,64.9,60.9,50.0,85,67,52,30.04,29.73,16,4,16,0.00
2014-10-29,80.1,66.3,54.5,56.3,49.0,43.3,81,56,35,30.14,30.02,10,2,10,0.00
2014-10-30,80.1,65.6,53.8,61.8,52.9,46.9,83,65,44,30.08,29.96,12,2,12,0.00
2014-10-31,68.2,60.0,51.4,55.1,44.1,32.1,73,56,43,30.28,30.07,18,4,18,0.00
2014-11-1,63.3,51.1,37.8,36.6,32.8,29.6,82,52,34,30.36,30.19,13,3,13,0.00
2014-11-2,68.2,56.0,45.5,49.2,42.0,34.4,71,60,47,30.26,30.08,17,6,17,0.00
2014-11-3,76.3,65.5,54.1,60.9,55.5,47.4,84,71,57,30.10,29.96,17,7,17,0.00
2014-11-4,70.0,60.6,52.9,63.6,57.4,51.5,95,90,74,30.15,29.95,19,5,19,1.31
2014-11-5,57.6,54.1,50.9,55.1,52.3,49.8,97,94,90,30.17,30.08,8,2,8,0.20
2014-11-6,72.5,56.9,43.7,52.1,45.8,40.5,94,70,36,30.26,30.16,10,2,10,0.00
2014-11-7,68.7,55.0,40.8,45.8,41.8,36.4,92,64,38,30.22,29.93,12,3,12,0.00
2014-11-8,69.6,57.7,47.1,49.8,42.5,38.2,86,60,34,30.08,29.91,17,3,17,0.00
2014-11-9,73.8,56.9,39.6,46.7,42.2,36.3,89,61,35,30.08,29.74,18,3,18,0.00
2014-11-10,80.1,66.6,53.4,58.5,51.7,44.8,76,60,41,29.74,29.50,22,8,22,0.00
2014-11-11,66.0,45.6,39.0,58.5,31.7,24.8,80,58,49,30.18,29.57,19,6,19,0.00
2014-11-12,41.4,36.3,32.4,25.1,20.7,14.6,61,53,44,30.42,30.18,18,6,18,0.00
2014-11-13,39.2,33.9,29.1,16.5,12.7,10.1,58,41,33,30.53,30.39,12,4,14,0.00
2014-11-14,42.1,35.8,27.0,21.4,18.2,15.5,66,49,37,30.39,30.20,8,2,8,0.00
2014-11-15,46.6,42.2,39.2,40.6,31.8,20.4,94,68,46,30.21,29.95,16,5,16,0.00
2014-11-16,41.4,37.4,28.4,39.9,34.7,24.4,95,90,78,30.20,29.91,16,4,16,0.09
2014-11-17,44.8,34.7,25.0,25.0,21.9,18.0,85,62,37,30.36,30.19,11,3,11,0.00
2014-11-18,58.3,41.5,24.4,26.3,23.1,19.8,89,54,24,30.40,30.21,12,3,12,0.00
2014-11-19,64.8,49.3,36.9,41.0,32.7,22.3,82,54,40,30.21,30.02,11,3,11,0.00
2014-11-20,73.2,58.0,42.3,58.2,48.6,38.1,90,73,44,30.04,29.88,14,4,14,0.00
2014-11-21,68.4,63.3,59.4,63.0,59.8,57.1,94,89,82,30.03,29.94,16,5,16,0.02
2014-11-22,62.1,59.6,55.8,59.8,58.0,55.0,97,94,89,29.99,29.56,16,5,16,0.62
2014-11-23,77.7,61.0,48.9,59.5,49.9,38.8,99,72,29,29.75,29.28,23,5,23,0.01
2014-11-24,63.1,50.6,39.7,39.8,33.2,24.9,75,54,26,30.08,29.74,10,2,10,0.00
2014-11-25,65.5,47.7,33.6,38.5,33.5,31.2,93,62,32,30.22,30.01,12,1,12,0.00
2014-11-26,66.0,52.6,38.3,39.0,34.7,30.3,78,52,35,30.30,29.93,10,3,10,0.00
2014-11-27,60.6,48.0,37.4,32.8,29.3,24.3,71,50,27,30.47,30.26,9,2,9,0.00
2014-11-28,69.8,55.4,36.5,53.7,43.1,30.3,85,64,52,30.26,29.88,18,5,18,0.00
2014-11-29,77.7,64.8,52.3,60.0,53.1,47.4,88,68,44,29.88,29.75,24,8,24,0.00
2014-11-30,79.7,70.3,62.8,63.4,60.7,59.2,90,73,52,30.02,29.80,19,7,19,0.00
2014-12-1,66.6,39.9,33.1,61.4,26.6,21.1,84,59,45,30.40,30.02,14,5,14,0.00
2014-12-2,48.7,39.9,32.2,42.2,26.9,20.4,78,60,47,30.38,30.05,14,3,14,0.00
2014-12-3,59.4,54.3,48.7,54.1,49.3,42.5,87,83,79,30.12,30.03,12,4,12,0.00
2014-12-4,65.1,60.6,57.0,59.7,56.9,53.7,90,88,82,30.09,29.94,12,4,12,0.00
2014-12-5,78.3,67.4,56.8,66.2,61.2,52.3,95,81,61,30.12,29.87,16,5,16,0.04
2014-12-6,68.7,57.2,47.1,52.4,49.5,43.7,88,76,56,30.33,30.12,16,5,16,0.00
2014-12-7,55.2,49.6,44.2,48.1,46.0,42.0,94,87,76,30.33,30.18,7,2,8,0.00
2014-12-8,60.1,49.4,41.5,50.7,45.3,39.1,95,86,68,30.28,30.19,9,1,9,0.00
2014-12-9,54.7,45.6,40.1,49.1,43.4,38.0,97,92,81,30.29,30.16,6,1,6,0.00
2014-12-10,57.2,50.1,41.2,49.3,45.7,39.9,97,85,74,30.17,30.04,7,2,7,0.00
2014-12-11,67.8,58.7,52.3,59.3,53.4,48.6,88,83,75,30.11,30.02,10,4,10,0.00
2014-12-12,74.1,66.5,61.7,61.8,59.5,57.1,85,78,65,30.15,30.06,11,4,12,0.00
2014-12-13,72.3,63.9,58.1,60.1,57.4,54.2,89,80,66,30.11,29.94,16,6,16,0.00
2014-12-14,66.9,64.1,61.3,63.4,60.6,57.9,93,88,84,29.94,29.69,19,6,19,0.14
2014-12-15,65.1,58.0,49.5,61.4,41.7,33.1,91,57,36,30.09,29.70,18,5,18,0.02
2014-12-16,53.6,46.2,39.4,35.5,32.5,28.5,82,59,46,30.30,30.09,12,3,12,0.00
2014-12-17,47.8,44.1,38.8,41.6,37.8,34.2,95,79,68,30.22,29.97,11,2,11,0.41
2014-12-18,50.0,46.2,41.9,47.2,44.0,40.6,97,92,87,30.10,30.01,6,2,6,0.03
2014-12-19,50.5,47.3,45.1,46.7,44.7,43.5,95,91,86,30.14,30.02,10,3,10,0.11
2014-12-20,48.7,46.7,44.6,45.2,43.7,42.5,93,89,85,30.18,30.08,8,2,8,0.00
2014-12-21,53.2,50.0,47.7,49.4,46.3,44.4,91,87,82,30.09,29.62,14,6,14,0.00
2014-12-22,66.6,56.8,51.3,53.4,48.3,43.4,91,75,48,29.64,29.46,18,4,18,0.00
2014-12-23,53.6,48.9,44.1,47.1,40.0,32.0,95,73,52,29.86,29.58,15,3,15,0.49
2014-12-24,53.1,44.4,35.8,35.7,33.4,30.3,82,66,51,29.97,29.85,16,4,16,0.00
2014-12-25,62.4,50.1,35.1,45.2,33.7,29.4,81,56,32,29.94,29.81,27,7,27,0.00
2014-12-26,65.1,58.0,50.2,60.5,53.8,44.6,94,86,75,29.89,29.76,13,4,13,0.00
2014-12-27,62.2,42.7,35.6,60.7,37.5,28.2,95,82,73,30.23,29.88,16,5,16,0.00
2014-12-28,48.7,39.2,34.5,29.0,27.4,24.8,75,63,41,30.22,30.04,8,2,8,0.00
2014-12-29,52.9,41.3,30.6,38.9,33.5,26.6,88,75,55,30.17,29.96,11,2,11,0.00
2014-12-30,46.8,42.3,36.9,38.4,32.3,28.8,87,69,50,30.47,30.17,14,4,14,0.00
2014-12-31,37.2,34.2,32.0,28.8,26.1,24.7,78,72,66,30.54,30.32,14,5,14,0.00
2015-1-1,36.3,34.3,31.8,35.3,31.5,25.2,96,89,70,30.33,30.12,6,2,6,0.78
2015-1-2,40.6,38.7,36.3,39.8,37.8,35.3,97,97,96,30.15,29.85,9,3,9,0.62